Vancouver Int'l Airport, British Columbia

Past 24 Hour Conditions

This table is a summary of hourly weather conditions for the past 24 hours. This summary includes the following parameters: temperature, humidity, dew point, wind speed and direction, air pressure, visibility and/or wind chill and humidex.
Date / Time
(PDT)
Conditions Temp (°C) Humidity (%) Dew Point (°C) Wind (km/h) Pressure (kPa) Visibility (km)
01 September 2014
18:00 Mostly Cloudy 20 59 12 SSE 9 101.7 32
17:00 Mostly Cloudy 19 69 14 SSW 9 101.7 32
16:00 Mostly Cloudy 19 67 13 SSW 14 101.7 32
15:00 Mostly Cloudy 20 61 13 S 11 101.7 32
14:00 Mostly Cloudy 21   57 12 E 16 101.8 32
13:00 Mostly Cloudy 20 58 12 SSE 19 101.8 32
12:00 Mostly Cloudy 20 59 12 SSE 17 101.8 32
11:00 Mostly Cloudy 19 69 13 E 22 101.8 32
10:00 Mostly Cloudy 18 74 13 E 21 gust 31 101.9 32
9:00 Mostly Cloudy 16 79 13 E 19 101.8 24
8:00 Mostly Cloudy 15 83 12 E 19 101.8 32
7:00 Mostly Cloudy 14 85 12 E 17 101.8 32
6:00 Mainly Clear 13   86 11 E 10 101.8 32
5:00 Mainly Clear 14 82 11 E 14 101.8 24
4:00 Mainly Clear 14 85 11 E 12 101.8 24
3:00 Mostly Cloudy 15 81 12 E 14 101.7 24
2:00 Cloudy 16 81 12 ESE 14 101.7 24
1:00 Mostly Cloudy 15 81 12 E 14 101.7 24
00:00 Mostly Cloudy 16 80 12 E 14 101.7 24
31 August 2014
23:00 Mostly Cloudy 16 77 12 E 11 101.7 24
22:00 Mostly Cloudy 16 80 12 E 16 101.7 24
21:00 Mostly Cloudy 17 76 12 E 12 101.7 24
20:00 Mostly Cloudy 17 71 12 ESE 11 101.7 32
19:00 Partly Cloudy 18 65 12 SE 10 101.6 32
18:00 Mostly Cloudy 20 60 12 SSE 15 101.7 32
N/A
Not available
 ↑ 
Highest temperature
 ↓ 
Lowest temperature

If you require additional historical weather information, please visit Climate Data Online.